Flag Weather past 2 weeks in Auckland, New Zealand

Now
57 °F

Scattered clouds.


Feels Like: 55 °F
Forecast: 57 / 66 °F
Wind: 10 mph from Southwest

Location: Auckland Airport

Current Time: Nov 1, 2014 at 7:39:54 AM

Latest Report: Nov 1, 2014 at 7:00 AM


Visibility: N/A

Pressure: 30.09 "Hg

Humidity: 94%

Dew point: 55 °F

Location of AucklandLocation

Historic Weather in Auckland — Graph

°F

Auckland temperature yesterday

Maximum temperature yesterday: 64 °F (at 1:30 PM)
Minimum temperature yesterday: 55 °F (at 12:00 AM)
Average temperature yesterday: 60 °F

Past Weeks' High & Low Weather Summary

 TemperatureHumidityPressure
High70 °F (Oct 17, 1:00 PM)100% (Oct 18, 5:30 PM)30.24 "Hg (Oct 18, 5:30 PM)
Low43 °F (Oct 25, 6:30 AM)44% (Oct 25, 11:30 AM)29.56 "Hg (Oct 29, 3:30 PM)
Average59 °F79%29.99 "Hg
* Reported Oct 17 6:00 AM — Nov 1 6:30 AM, Auckland, Weather by CustomWeather, © 2014

Note: Actual official high and low records may vary slightly from our data, if they occured in-between our weather recording intervals... More about our weather records

Advertising

Auckland weather history for previous 24 hours

 ConditionsComfort  
Time TempWeatherWind HumidityBarometerVisibility
6:30 AM
Nov 1
59 °FPartly sunny.10 mph88%30.07 "HgN/A
6:00 AM59 °FMostly cloudy.10 mph88%30.07 "HgN/A
5:30 AM59 °FPartly cloudy.12 mph88%30.07 "HgN/A
5:00 AM59 °FPassing clouds.13 mph94%30.04 "HgN/A
4:30 AM59 °FLight rain. Passing clouds.9 mph94%30.04 "Hg6 mi
4:00 AM59 °FSprinkles. Overcast.12 mph94%30.04 "Hg5 mi
3:30 AM59 °FPassing clouds.12 mph94%30.04 "Hg6 mi
3:00 AM59 °FOvercast.14 mph94%30.04 "HgN/A
2:30 AM59 °FSprinkles. Passing clouds.13 mph94%30.01 "Hg6 mi
2:00 AM61 °FLight rain. Overcast.15 mph88%30.01 "HgN/A
1:30 AM61 °FMostly cloudy.20 mph88%30.01 "HgN/A
1:00 AM61 °FMostly cloudy.16 mph88%30.01 "HgN/A
12:30 AM59 °FPassing clouds.17 mph94%30.01 "HgN/A
12:00 AM61 °FPassing clouds.16 mph88%30.01 "HgN/A
11:30 PM
Oct 31
61 °FPartly cloudy.18 mph88%30.01 "HgN/A
11:00 PM61 °FPartly cloudy.17 mph83%30.01 "HgN/A
10:30 PM61 °FMostly cloudy.18 mph83%30.01 "HgN/A
10:00 PM61 °FPassing clouds.18 mph83%30.01 "HgN/A
9:30 PM61 °FPassing clouds.17 mph83%30.01 "HgN/A
9:00 PM61 °FMostly cloudy.20 mph83%29.98 "HgN/A
8:30 PM61 °FOvercast.20 mph83%29.98 "HgN/A
8:00 PM61 °FMostly cloudy.20 mph83%29.98 "HgN/A
7:30 PM61 °FPartly sunny.23 mph83%29.95 "HgN/A
7:00 PM61 °FMostly cloudy.23 mph83%29.95 "HgN/A
6:30 PM61 °FMostly cloudy.24 mph83%29.95 "HgN/A
6:00 PM63 °FMostly cloudy.25 mph77%29.95 "HgN/A
5:30 PM64 °FPartly sunny.25 mph73%29.95 "HgN/A
5:00 PM64 °FPartly sunny.30 mph73%29.95 "HgN/A
4:30 PM64 °FScattered clouds.25 mph73%29.95 "HgN/A
4:00 PM64 °FBroken clouds.25 mph73%29.95 "HgN/A
3:30 PM64 °FPartly sunny.25 mph73%29.95 "HgN/A
3:00 PM64 °FScattered clouds.22 mph68%29.95 "HgN/A
2:30 PM64 °FScattered clouds.24 mph73%29.98 "HgN/A
2:00 PM63 °FScattered clouds.23 mph73%29.98 "HgN/A
1:30 PM64 °FScattered clouds.24 mph68%29.98 "HgN/A
1:00 PM63 °FPartly sunny.22 mph77%29.98 "HgN/A
12:30 PM59 °FLight rain. Partly sunny.24 mph82%29.98 "Hg5 mi
12:00 PM63 °FBroken clouds.22 mph68%29.98 "HgN/A
11:30 AM63 °FPartly sunny.21 mph64%29.98 "HgN/A
11:00 AM63 °FPartly sunny.18 mph68%29.98 "HgN/A
10:30 AM63 °FScattered clouds.21 mph64%29.98 "HgN/A
10:00 AM61 °FBroken clouds.22 mph68%29.98 "HgN/A
9:30 AM63 °FScattered clouds.16 mph68%29.98 "HgN/A
9:00 AM59 °FOvercast.17 mph72%29.98 "HgN/A
8:30 AM59 °FOvercast.15 mph72%29.95 "Hg6 mi
8:00 AM59 °FPartly sunny.12 mph68%29.95 "HgN/A
7:30 AM57 °FBroken clouds.10 mph77%29.95 "HgN/A
7:00 AM57 °FPartly sunny.13 mph77%29.95 "HgN/A
Weather by CustomWeather, © 2014

See weather overviewHow to use our weather pages